Change the Weather History Date:

Thursday, March 27, 2014

  Actual Average Record
Temperature  
Mean Temperature 43 °F -  
Max Temperature 53 °F 51 °F 68 °F (1997)
Min Temperature 33 °F 27 °F 10 °F (2009)
Degree Days  
Heating Degree Days 22    
Moisture  
Dew Point 13 °F    
Average Humidity 31    
Maximum Humidity 73    
Minimum Humidity 13    
Precipitation  
Precipitation 0.00 in - - ()
Sea Level Pressure  
Sea Level Pressure 29.59 in    
Wind  
Wind Speed 14 mph (NW)    
Max Wind Speed 26 mph    
Max Gust Speed 34 mph    
Visibility 10 miles    
Events      
Averages and records for this station are not official NWS values.
T = Trace of Precipitation, MM = Missing Value Source: NWS Daily Summary

Daily Weather History Graph

Daily Weather History Graph

Search for Another Location

Airport or City:

Trip Planner

Search our weather history database for the weather conditions in past years. The results will help you decide how hot, cold, wet, or windy it might be!

Date:

Astronomy

Mar. 27, 2014 Rise Set
Actual Time 6:51 AM MDT 7:18 PM MDT
Civil Twilight 6:24 AM MDT 7:44 PM MDT
Nautical Twilight 5:53 AM MDT 8:16 PM MDT
Astronomical Twilight 5:21 AM MDT 8:48 PM MDT
Moon 4:42 AM MDT (3/27) 4:10 PM MDT (3/27)
Length of Visible Light 13h 20m
Length of Day
12h 26m
Waning Crescent, 12% of the Moon is Illuminated
Mar 27
Waning Crescent
Mar 30
New
Apr 7
First Quarter
Apr 15
Full
Apr 22
Last Quarter

Hourly Weather History & Observations

Time (MDT) Temp. Windchill Dew Point Humidity Pressure Visibility Wind Dir Wind Speed Gust Speed Precip Events Conditions
12:58 AM 43.7 °F 38.6 °F 22.8 °F 44% 29.29 in 10.0 mi NW 9.2 mph 18.4 mph N/A   Clear
1:58 AM 42.1 °F 33.9 °F 22.6 °F 46% 29.25 in 10.0 mi West 17.3 mph 23.0 mph N/A   Clear
2:58 AM 41.5 °F 35.0 °F 22.8 °F 47% 29.28 in 10.0 mi West 11.5 mph - N/A   Clear
3:58 AM 39.4 °F 29.8 °F 22.3 °F 50% 29.31 in 10.0 mi North 19.6 mph 23.0 mph N/A   Partly Cloudy
4:58 AM 37.2 °F 28.7 °F 26.2 °F 65% 29.37 in 10.0 mi North 13.8 mph - N/A   Clear
5:58 AM 33.3 °F 27.1 °F 25.5 °F 73% 29.43 in 10.0 mi NNE 6.9 mph - N/A   Clear
6:58 AM 33.3 °F 27.1 °F 25.0 °F 72% 29.50 in 10.0 mi NNW 6.9 mph - N/A   Clear
7:58 AM 36.1 °F 31.4 °F 24.8 °F 63% 29.54 in 10.0 mi NW 5.8 mph 18.4 mph N/A   Clear
8:58 AM 42.1 °F - 21.0 °F 43% 29.52 in 10.0 mi NNE 2.3 mph - N/A   Clear
9:44 AM 46.4 °F 40.4 °F 21.2 °F 37% 29.63 in 10.0 mi NE 13.8 mph - N/A   Partly Cloudy
9:58 AM 44.8 °F 37.7 °F 20.8 °F 39% 29.56 in 10.0 mi North 16.1 mph - N/A   Scattered Clouds
10:58 AM 48.2 °F - 11.7 °F 23% 29.55 in 10.0 mi West 16.1 mph 23.0 mph N/A   Clear
11:30 AM 48.2 °F - 8.6 °F 20% 29.66 in 10.0 mi WNW 15.0 mph 34.5 mph N/A   Clear
11:55 AM 50.0 °F - 8.6 °F 19% 29.66 in 10.0 mi NW 17.3 mph 33.4 mph N/A   Clear
11:58 AM 49.6 °F - 7.7 °F 18% 29.57 in 10.0 mi WNW 23.0 mph 33.4 mph N/A   Clear
12:20 PM 51.8 °F - 6.8 °F 16% 29.66 in 10.0 mi West 21.9 mph 28.8 mph N/A   Clear
12:57 PM 53.6 °F - 3.2 °F 13% 29.67 in 10.0 mi WNW 17.3 mph 28.8 mph N/A   Partly Cloudy
12:58 PM 53.1 °F - 3.6 °F 13% 29.55 in 10.0 mi WNW 17.3 mph 28.8 mph N/A   Partly Cloudy
1:58 PM 50.7 °F - 2.3 °F 14% 29.57 in 10.0 mi West 19.6 mph 27.6 mph N/A   Scattered Clouds
2:58 PM 46.8 °F - 12.7 °F 25% 29.61 in 10.0 mi West 18.4 mph 27.6 mph N/A   Partly Cloudy
3:32 PM 51.8 °F - 8.6 °F 18% 29.68 in 10.0 mi WNW 15.0 mph 23.0 mph N/A   Clear
3:48 PM 53.6 °F - 8.6 °F 16% 29.68 in 10.0 mi West 18.4 mph 23.0 mph N/A   Partly Cloudy
3:52 PM 53.6 °F - 8.6 °F 16% 29.68 in 10.0 mi West 15.0 mph 23.0 mph N/A   Unknown
3:53 PM 53.6 °F - 8.6 °F 16% 29.68 in 10.0 mi WNW 18.4 mph 23.0 mph N/A   Unknown
3:58 PM 52.7 °F - 9.0 °F 17% 29.58 in 10.0 mi WNW 20.7 mph 25.3 mph 0.00 in   Scattered Clouds
3:59 PM 51.8 °F - 10.4 °F 19% 29.68 in 10.0 mi NW 19.6 mph 27.6 mph N/A   Scattered Clouds
4:10 PM 51.8 °F - 6.8 °F 16% 29.69 in 10.0 mi WNW 26.5 mph 33.4 mph N/A   Clear
4:58 PM 49.5 °F - 6.4 °F 17% 29.61 in 10.0 mi NW 10.4 mph - N/A   Clear
5:58 PM 48.9 °F - 11.5 °F 22% 29.67 in 10.0 mi WNW 20.7 mph 25.3 mph N/A   Clear
6:58 PM 46.9 °F - 9.1 °F 22% 29.70 in 10.0 mi West 10.4 mph 20.7 mph N/A   Clear
7:58 PM 43.0 °F 41.3 °F 9.5 °F 25% 29.75 in 10.0 mi Variable 3.5 mph - N/A   Clear
8:58 PM 41.9 °F 35.9 °F 13.6 °F 32% 29.73 in 10.0 mi NE 10.4 mph - N/A   Mostly Cloudy
9:58 PM 41.4 °F 38.4 °F 12.7 °F 31% 29.75 in 10.0 mi West 4.6 mph - N/A   Clear
10:58 PM 39.6 °F 34.7 °F 12.2 °F 33% 29.74 in 10.0 mi NNE 6.9 mph - N/A   Clear
11:58 PM 35.1 °F 27.9 °F 13.3 °F 41% 29.78 in 10.0 mi ENE 9.2 mph - N/A   Clear